DW2973 Weather Reports


Display with metric or nautical units.
time (UTC)temp
F
wind
direction
speed
MPH
gust
MPH
rain 1hr
in
rain 24hr
in
rain mn
in
humidity
%
barometer
mb
20260901233027 58 240 0.0 0.0 0.00 0.00 0.00 84 1013.7
20260901231525 59 237 0.0 0.0 0.00 0.00 0.00 85 1013.7
20260901230024 59 229 0.0 0.0 0.00 0.00 0.00 85 1013.6
20260901224522 60 276 0.0 0.0 0.00 0.00 0.00 86 1013.5
20260901223020 60 286 0.0 0.0 0.00 0.00 0.00 86 1013.4
20260901221520 60 253 0.0 0.0 0.00 0.00 0.00 87 1013.3
20260901220033 60 253 0.0 0.0 0.00 0.00 0.00 87 1013.3
20260901214516 59 254 0.0 0.0 0.00 0.00 0.04 88 1013.3
20260901213015 59 330 0.0 0.0 0.00 0.00 0.04 87 1013.2
20260901211514 59 330 0.0 0.0 0.00 0.00 0.04 87 1013.1
20260901210014 59 330 0.0 0.0 0.00 0.00 0.04 86 1013.0
20260901204514 59 330 0.0 0.0 0.00 0.00 0.04 85 1013.0
20260901203011 60 330 0.0 0.0 0.00 0.00 0.04 85 1013.0
20260901201510 60 330 0.0 0.0 0.00 0.00 0.04 84 1013.0
20260901200009 61 330 0.0 0.0 0.00 0.00 0.04 83 1012.9
20260901194508 61 330 0.0 0.0 0.00 0.00 0.04 82 1012.8
20260901193008 62 330 0.0 0.0 0.00 0.00 0.04 82 1012.8
20260901191507 62 334 0.0 0.0 0.00 0.00 0.04 82 1012.6
20260901190011 63 333 0.0 0.0 0.00 0.00 0.04 83 1012.5
20260901184506 63 266 0.0 0.0 0.00 0.00 0.04 84 1012.2
20260901183002 63 248 0.0 0.0 0.00 0.00 0.04 84 1012.2
20260901181502 64 244 0.0 0.0 0.00 0.00 0.04 83 1012.0
20260901180100 64 220 0.0 0.0 0.00 0.00 0.04 83 1011.9
20260901174601 65 220 0.0 0.0 0.00 0.00 0.04 81 1011.7
20260901173058 66 225 0.0 0.0 0.00 0.00 0.04 80 1011.7
20260901171629 67 232 0.0 0.0 0.00 0.00 0.04 79 1011.6
20260901170105 67 229 0.0 0.0 0.00 0.00 0.03 78 1011.6
20260901164612 68 236 0.0 0.0 0.00 0.00 0.03 76 1011.5
20260901163114 68 233 0.0 0.0 0.00 0.00 0.03 77 1011.5
20260901161556 69 210 0.0 0.0 0.00 0.00 0.03 75 1011.5
20260901160053 69 252 0.0 0.0 0.00 0.00 0.03 75 1011.4
20260901154556 69 249 0.0 0.0 0.00 0.00 0.03 77 1011.3
20260901153051 69 227 0.0 0.0 0.00 0.00 0.03 78 1011.3
20260901151551 70 259 0.0 0.0 0.00 0.00 0.03 75 1011.3
20260901150050 71 231 0.0 0.0 0.00 0.00 0.03 73 1011.2
20260901144549 71 230 0.0 0.0 0.00 0.00 0.03 73 1011.0
20260901143047 72 262 0.0 0.0 0.00 0.00 0.03 72 1011.0
20260901141548 72 234 0.0 0.0 0.00 0.00 0.03 72 1011.0
20260901140056 72 337 0.0 0.0 0.00 0.00 0.03 72 1011.0
20260901134551 72 215 0.0 0.0 0.00 0.00 0.03 72 1010.9
20260901133059 72 215 0.0 0.0 0.00 0.00 0.03 71 1010.8
20260901131547 72 240 0.0 0.0 0.00 0.00 0.03 72 1010.8
20260901130044 72 240 0.0 0.0 0.00 0.00 0.03 71 1010.9
20260901124541 72 224 0.0 0.0 0.00 0.00 0.03 73 1010.9
20260901123041 71 250 0.0 0.0 0.00 0.00 0.03 73 1010.9
20260901121546 71 253 0.0 0.0 0.00 0.00 0.02 74 1010.8
20260901120038 71 248 0.0 0.0 0.00 0.00 0.02 76 1011.0
20260901114534 70 246 0.0 0.0 0.00 0.00 0.02 76 1010.9
20260901113032 70 240 0.0 0.0 0.00 0.00 0.02 78 1010.9
20260901111530 69 214 0.0 0.0 0.00 0.00 0.02 78 1010.8
20260901110029 69 284 0.0 0.0 0.00 0.00 0.02 79 1010.8
20260901104535 68 271 0.0 0.0 0.00 0.00 0.02 81 1010.7
20260901103031 67 240 0.0 0.0 0.00 0.00 0.02 81 1010.6
20260901101523 68 230 0.0 0.0 0.00 0.00 0.02 81 1010.6
20260901100021 68 254 0.0 0.0 0.00 0.00 0.02 82 1010.4
20260901094522 67 252 0.0 0.0 0.00 0.00 0.02 85 1010.3
20260901093017 66 248 0.0 0.0 0.00 0.00 0.02 86 1010.3
20260901091514 65 259 0.0 0.0 0.00 0.00 0.02 88 1010.1
20260901090010 64 275 0.0 0.0 0.00 0.00 0.02 89 1010.0
20260901084508 63 270 0.0 0.0 0.00 0.00 0.02 90 1009.9
20260901083004 63 299 0.0 0.0 0.00 0.00 0.02 91 1009.8
20260901081502 63 299 0.0 0.0 0.00 0.00 0.02 92 1009.7
20260901080112 63 234 0.0 0.0 0.00 0.00 0.02 93 1009.4
20260901074559 62 234 0.0 0.0 0.00 0.00 0.02 93 1009.2
20260901073057 62 234 0.0 0.0 0.00 0.00 0.02 93 1009.2
20260901071603 62 234 0.0 0.0 0.00 0.00 0.02 94 1009.0
20260901064607 61 234 0.0 0.0 0.00 0.00 0.02 94 1008.8
20260901063106 61 234 0.0 0.0 0.00 0.00 0.02 94 1008.6
20260901061547 60 234 0.0 0.0 0.00 0.00 0.02 94 1008.5
20260901060046 60 234 0.0 0.0 0.00 0.00 0.02 94 1008.4
20260901054546 59 224 0.0 0.0 0.00 0.00 0.02 95 1008.3
20260901053045 58 224 0.0 0.0 0.00 0.00 0.02 94 1008.3
20260901051551 58 220 0.0 0.0 0.00 0.00 0.02 94 1008.2
20260901050042 58 220 0.0 0.0 0.00 0.00 0.02 94 1008.1
20260901044541 58 220 0.0 0.0 0.00 0.00 0.02 94 1007.9
20260901043040 58 220 0.0 0.0 0.00 0.00 0.02 94 1007.9
20260901041538 58 219 0.0 0.0 0.00 0.00 0.02 94 1007.7
20260901040040 58 220 0.0 0.0 0.00 0.00 0.01 94 1007.7
20260901034536 58 219 0.0 0.0 0.00 0.00 0.01 94 1007.7
20260901033039 58 219 0.0 0.0 0.00 0.00 0.01 94 1007.5
20260901031543 58 219 0.0 0.0 0.00 0.00 0.01 94 1007.3
20260901030033 58 220 0.0 0.0 0.00 0.00 0.01 94 1007.3
20260901024532 58 220 0.0 0.0 0.00 0.00 0.01 93 1007.2
20260901023030 58 220 0.0 0.0 0.00 0.00 0.01 93 1007.1
20260901021544 58 220 0.0 0.0 0.00 0.00 0.01 93 1007.1
20260901020030 58 219 0.0 0.0 0.00 0.00 0.01 93 1007.0
20260901014528 58 220 0.0 0.0 0.00 0.00 0.01 93 1006.9
20260901013033 58 220 0.0 0.0 0.00 0.00 0.01 93 1006.9
20260901011526 58 219 0.0 0.0 0.00 0.00 0.01 93 1006.9
20260901010041 58 219 0.0 0.0 0.00 0.00 0.01 93 1006.8
20260901004525 58 220 0.0 0.0 0.00 0.00 0.01 93 1006.8
20260901003028 58 220 0.0 0.0 0.00 0.00 0.01 93 1006.8
20260901001523 58 220 0.0 0.0 0.00 0.00 0.01 92 1006.7
20260901000021 59 220 0.0 0.0 0.00 0.00 0.01 92 1006.6
20260831234521 59 229 0.0 0.0 0.00 0.00 0.01 92 1006.6